Погода в Вольном

Россия / Орловская область     52°48′48″N   37°49′55″E
темп.,
°C
ветер,
м/с
пор.,
м/с
влажн.,
%
обл.,
%
осадки,
мм/ч
давл.,
гПа
погр.,
м
24 января, пн
пн2400:00−14ссв4910096 0.0 1032121
03:00−12св61398100 0.1 1032221
06:00−10св6159589 0.0 1032303
09:00−10ссв7159499 0.1 1033377
12:00−9св6149495 0.1 1032400
15:00−8св5119595 0.1 1031313
18:00−11ссв5109792 0.0 1032203
21:00−13св4109885 0.0 1032159
25 января, вт
вт2500:00−14св489867 0.0 1030118
03:00−18св349959 0.0 103039
06:00−18св349959 0.0 102846
09:00−20св2210089 0.0 102730
12:00−14в119684 0.0 102582
15:00−12юз119492 0.0 102368
18:00−14зюз2297100 0.0 102228
21:00−14юз2397100 0.0 102056
26 января, ср
ср2600:00−15зюз3497100 0.0 102071
03:00−18зюз3598100 0.0 101960
06:00−18зюз3499100 0.0 101850
09:00−14юз3595100 0.0 1018102
12:00−9юз359399 0.3 1018245
15:00−8зюз359485 0.4 1018331
18:00−10зюз2398100 0.1 101954
21:00−13з229883 0.1 101918
27 января, чт
чт2700:00−14зсз229978 0.1 102010
03:00−15зсз229988 0.1 102019
06:00−18з22100100 0.0 10209
09:00−17ююз229980 0.1 102017
12:00−12ююз359790 0.0 1019135
15:00−10ююз3796100 0.1 1018228
18:00−12ю3898100 0.0 1017127
21:00−14ю499876 0.0 1017124
28 января, пт
пт2800:00−15ю4119986 0.0 1015154
03:00−14ю5139690 0.0 1014226
06:00−11ю6139473 0.0 1011298
09:00−10ююв61495100 0.1 1010328
12:00−7ю71595100 0.8 1007467
15:00−5ю71395100 2.5 1005515
18:00−4ю6129699 0.8 1004400
21:00−3ююз41097100 1.3 1003308